| time (UTC) | temp F | wind direction | speed MPH | gust MPH | rain 1hr in | rain 24hr in | rain mn in | humidity % | barometer mb |
| 20260906101228 | 73 | 121 | 5.0 | 8.0 | 0.00 | 0.08 | 0.00 | 94 | 1014.1 |
| 20260906100735 | 73 | 74 | 3.0 | 7.0 | 0.00 | 0.08 | 0.00 | 94 | 1014.1 |
| 20260906100239 | 73 | 119 | 2.0 | 10.0 | 0.00 | 0.08 | 0.00 | 94 | 1014.0 |
| 20260906095721 | 73 | 108 | 4.0 | 10.0 | 0.00 | 0.08 | 0.00 | 94 | 1013.8 |
| 20260906095223 | 73 | 146 | 3.0 | 7.0 | 0.00 | 0.08 | 0.00 | 94 | 1013.7 |
| 20260906094727 | 73 | 88 | 1.0 | 7.0 | 0.00 | 0.08 | 0.00 | 94 | 1013.6 |
| 20260906094253 | 73 | 134 | 4.0 | 7.0 | 0.00 | 0.08 | 0.00 | 94 | 1013.6 |
| 20260906093716 | 73 | 142 | 2.0 | 7.0 | 0.00 | 0.08 | 0.00 | 94 | 1013.5 |
| 20260906093221 | 73 | 130 | 3.0 | 8.0 | 0.00 | 0.08 | 0.00 | 94 | 1013.6 |
| 20260906092745 | 73 | 142 | 2.0 | 8.0 | 0.00 | 0.08 | 0.00 | 93 | 1013.5 |
| 20260906092249 | 73 | 105 | 1.0 | 6.0 | 0.00 | 0.08 | 0.00 | 93 | 1013.5 |
| 20260906091732 | 73 | 117 | 1.0 | 4.0 | 0.00 | 0.08 | 0.00 | 93 | 1013.4 |
| 20260906091236 | 73 | 134 | 2.0 | 5.0 | 0.00 | 0.08 | 0.00 | 93 | 1013.5 |
| 20260906090739 | 73 | 88 | 2.0 | 5.0 | 0.00 | 0.08 | 0.00 | 93 | 1013.4 |
| 20260906090242 | 73 | 138 | 1.0 | 6.0 | 0.00 | 0.08 | 0.00 | 93 | 1013.6 |
| 20260906085726 | 73 | 144 | 0.0 | 6.0 | 0.00 | 0.08 | 0.00 | 93 | 1013.6 |
| 20260906085229 | 73 | 135 | 2.0 | 6.0 | 0.00 | 0.08 | 0.00 | 93 | 1013.4 |
| 20260906084713 | 73 | 69 | 0.0 | 7.0 | 0.00 | 0.08 | 0.00 | 93 | 1013.4 |
| 20260906084240 | 73 | 119 | 2.0 | 7.0 | 0.00 | 0.08 | 0.00 | 93 | 1013.4 |
| 20260906083724 | 73 | 142 | 2.0 | 4.0 | 0.00 | 0.08 | 0.00 | 93 | 1013.4 |
| 20260906083250 | 73 | 123 | 2.0 | 4.0 | 0.00 | 0.08 | 0.00 | 93 | 1013.3 |
| 20260906082736 | 73 | 134 | 1.0 | 4.0 | 0.00 | 0.08 | 0.00 | 93 | 1013.2 |
| 20260906082238 | 74 | 103 | 1.0 | 4.0 | 0.00 | 0.08 | 0.00 | 93 | 1013.2 |
| 20260906081744 | 74 | 101 | 1.0 | 4.0 | 0.00 | 0.08 | 0.00 | 93 | 1013.2 |
| 20260906081230 | 74 | 83 | 1.0 | 5.0 | 0.00 | 0.08 | 0.00 | 93 | 1013.2 |
| 20260906080716 | 74 | 65 | 2.0 | 6.0 | 0.00 | 0.08 | 0.00 | 93 | 1013.1 |
| 20260906080222 | 74 | 86 | 0.0 | 6.0 | 0.00 | 0.08 | 0.00 | 93 | 1013.0 |
| 20260906075728 | 74 | 82 | 2.0 | 6.0 | 0.00 | 0.08 | 0.00 | 93 | 1013.1 |
| 20260906075219 | 74 | 153 | 2.0 | 5.0 | 0.00 | 0.08 | 0.00 | 92 | 1013.2 |
| 20260906074725 | 74 | 159 | 1.0 | 5.0 | 0.00 | 0.08 | 0.00 | 92 | 1013.1 |
| 20260906074231 | 74 | 140 | 3.0 | 6.0 | 0.00 | 0.08 | 0.00 | 92 | 1013.1 |
| 20260906073717 | 74 | 157 | 2.0 | 5.0 | 0.00 | 0.08 | 0.00 | 92 | 1013.2 |
| 20260906073243 | 74 | 148 | 2.0 | 5.0 | 0.00 | 0.08 | 0.00 | 92 | 1013.1 |
| 20260906072729 | 74 | 115 | 2.0 | 4.0 | 0.00 | 0.08 | 0.00 | 92 | 1013.3 |
| 20260906072215 | 74 | 100 | 1.0 | 4.0 | 0.00 | 0.08 | 0.00 | 92 | 1013.2 |
| 20260906071722 | 75 | 99 | 1.0 | 4.0 | 0.00 | 0.08 | 0.00 | 92 | 1013.2 |
| 20260906071228 | 75 | 140 | 0.0 | 5.0 | 0.00 | 0.08 | 0.00 | 92 | 1013.3 |
| 20260906070715 | 75 | 141 | 1.0 | 5.0 | 0.00 | 0.08 | 0.00 | 92 | 1013.4 |
| 20260906070242 | 75 | 128 | 0.0 | 2.0 | 0.00 | 0.08 | 0.00 | 92 | 1013.3 |
| 20260906065748 | 75 | 128 | 1.0 | 2.0 | 0.00 | 0.08 | 0.00 | 92 | 1013.4 |
| 20260906065249 | 75 | 128 | 1.0 | 3.0 | 0.00 | 0.08 | 0.00 | 92 | 1013.4 |
| 20260906064718 | 75 | 128 | 0.0 | 5.0 | 0.00 | 0.08 | 0.00 | 92 | 1013.4 |
| 20260906064224 | 75 | 128 | 1.0 | 5.0 | 0.00 | 0.08 | 0.00 | 92 | 1013.5 |
| 20260906063731 | 75 | 61 | 0.0 | 0.0 | 0.00 | 0.08 | 0.00 | 92 | 1013.6 |
| 20260906063217 | 75 | 61 | 0.0 | 0.0 | 0.00 | 0.08 | 0.00 | 92 | 1013.5 |
| 20260906062724 | 76 | 61 | 0.0 | 0.0 | 0.00 | 0.08 | 0.00 | 92 | 1013.5 |
| 20260906062230 | 76 | 62 | 0.0 | 0.0 | 0.00 | 0.08 | 0.00 | 92 | 1013.6 |
| 20260906061716 | 76 | 62 | 0.0 | 0.0 | 0.00 | 0.08 | 0.00 | 92 | 1013.5 |
| 20260906061242 | 76 | 61 | 0.0 | 0.0 | 0.00 | 0.08 | 0.00 | 92 | 1013.5 |
| 20260906060742 | 76 | 61 | 0.0 | 0.0 | 0.00 | 0.08 | 0.00 | 92 | 1013.5 |
| 20260906060243 | 76 | 61 | 0.0 | 0.0 | 0.00 | 0.08 | 0.00 | 91 | 1013.6 |
| 20260906055721 | 76 | 61 | 0.0 | 0.0 | 0.00 | 0.08 | 0.00 | 91 | 1013.7 |
| 20260906055227 | 76 | 61 | 0.0 | 0.0 | 0.00 | 0.08 | 0.00 | 91 | 1013.7 |
| 20260906054753 | 76 | 61 | 0.0 | 0.0 | 0.00 | 0.08 | 0.00 | 91 | 1013.7 |
| 20260906054218 | 76 | 61 | 0.0 | 0.0 | 0.00 | 0.08 | 0.00 | 91 | 1013.6 |
| 20260906053725 | 76 | 61 | 0.0 | 0.0 | 0.00 | 0.08 | 0.00 | 91 | 1013.6 |
| 20260906053214 | 76 | 61 | 0.0 | 0.0 | 0.00 | 0.08 | 0.00 | 91 | 1013.7 |
| 20260906052721 | 77 | 61 | 0.0 | 1.0 | 0.00 | 0.08 | 0.00 | 91 | 1013.5 |
| 20260906052242 | 77 | 61 | 0.0 | 2.0 | 0.00 | 0.08 | 0.00 | 91 | 1013.5 |
| 20260906051747 | 77 | 61 | 0.0 | 3.0 | 0.00 | 0.08 | 0.00 | 91 | 1013.5 |
| 20260906051249 | 77 | 61 | 0.0 | 3.0 | 0.00 | 0.08 | 0.00 | 91 | 1013.5 |
| 20260906050750 | 77 | 63 | 1.0 | 3.0 | 0.00 | 0.08 | 0.00 | 92 | 1013.5 |
| 20260906050230 | 77 | 62 | 1.0 | 5.0 | 0.00 | 0.08 | 0.00 | 92 | 1013.4 |
| 20260906045732 | 77 | 61 | 2.0 | 5.0 | 0.00 | 0.08 | 0.00 | 92 | 1013.3 |
| 20260906045212 | 77 | 30 | 1.0 | 4.0 | 0.00 | 0.08 | 0.00 | 92 | 1013.3 |
| 20260906044715 | 77 | 67 | 2.0 | 3.0 | 0.00 | 0.08 | 0.00 | 92 | 1013.2 |
| 20260906044216 | 77 | 55 | 1.0 | 3.0 | 0.00 | 0.08 | 0.00 | 92 | 1013.1 |
| 20260906043718 | 77 | 80 | 0.0 | 5.0 | 0.00 | 0.08 | 0.00 | 92 | 1013.0 |
| 20260906043218 | 77 | 81 | 1.0 | 5.0 | 0.00 | 0.08 | 0.00 | 92 | 1012.9 |
| 20260906042720 | 77 | 121 | 2.0 | 4.0 | 0.00 | 0.08 | 0.00 | 92 | 1012.8 |
| 20260906042242 | 77 | 67 | 1.0 | 4.0 | 0.00 | 0.08 | 0.00 | 92 | 1012.7 |
| 20260906041723 | 77 | 130 | 1.0 | 8.0 | 0.00 | 0.08 | 0.00 | 92 | 1012.9 |
| 20260906041226 | 77 | 114 | 2.0 | 8.0 | 0.00 | 0.08 | 0.00 | 92 | 1012.7 |
| 20260906040730 | 77 | 92 | 2.0 | 9.0 | 0.00 | 0.08 | 0.00 | 92 | 1012.8 |
| 20260906040233 | 77 | 92 | 2.0 | 9.0 | 0.00 | 0.08 | 0.00 | 92 | 1012.7 |
| 20260906035716 | 77 | 153 | 2.0 | 6.0 | 0.00 | 0.08 | 0.08 | 92 | 1012.7 |
| 20260906035241 | 77 | 138 | 3.0 | 7.0 | 0.00 | 0.08 | 0.08 | 92 | 1012.8 |
| 20260906034744 | 77 | 86 | 2.0 | 9.0 | 0.00 | 0.08 | 0.08 | 92 | 1012.8 |
| 20260906034246 | 77 | 87 | 2.0 | 9.0 | 0.00 | 0.08 | 0.08 | 92 | 1012.8 |
| 20260906033730 | 77 | 119 | 2.0 | 6.0 | 0.00 | 0.08 | 0.08 | 92 | 1012.8 |
| 20260906033235 | 77 | 100 | 0.0 | 4.0 | 0.00 | 0.08 | 0.08 | 92 | 1012.6 |
| 20260906032720 | 77 | 109 | 1.0 | 6.0 | 0.00 | 0.08 | 0.08 | 91 | 1012.7 |
| 20260906032245 | 77 | 109 | 1.0 | 6.0 | 0.00 | 0.08 | 0.08 | 91 | 1012.8 |
| 20260906031730 | 77 | 108 | 0.0 | 4.0 | 0.00 | 0.08 | 0.08 | 91 | 1012.7 |
| 20260906031216 | 77 | 108 | 2.0 | 4.0 | 0.00 | 0.08 | 0.08 | 91 | 1012.7 |
| 20260906030743 | 77 | 78 | 2.0 | 4.0 | 0.00 | 0.08 | 0.08 | 91 | 1012.7 |
| 20260906030229 | 77 | 71 | 1.0 | 4.0 | 0.00 | 0.08 | 0.08 | 90 | 1012.6 |
| 20260906025714 | 77 | 107 | 1.0 | 3.0 | 0.00 | 0.08 | 0.08 | 90 | 1012.5 |
| 20260906025241 | 77 | 149 | 0.0 | 4.0 | 0.00 | 0.08 | 0.08 | 90 | 1012.5 |
| 20260906024727 | 77 | 80 | 1.0 | 4.0 | 0.00 | 0.08 | 0.08 | 89 | 1012.5 |
| 20260906024213 | 77 | 123 | 1.0 | 3.0 | 0.00 | 0.08 | 0.08 | 89 | 1012.5 |
| 20260906023735 | 78 | 126 | 0.0 | 4.0 | 0.00 | 0.08 | 0.08 | 89 | 1012.6 |
| 20260906023219 | 78 | 126 | 1.0 | 4.0 | 0.00 | 0.08 | 0.08 | 88 | 1012.6 |
| 20260906022720 | 78 | 137 | 0.0 | 2.0 | 0.00 | 0.08 | 0.08 | 87 | 1012.6 |
| 20260906022224 | 78 | 137 | 1.0 | 3.0 | 0.00 | 0.08 | 0.08 | 87 | 1012.5 |
| 20260906021724 | 78 | 150 | 1.0 | 3.0 | 0.01 | 0.08 | 0.08 | 87 | 1012.4 |
| 20260906021229 | 78 | 153 | 0.0 | 3.0 | 0.04 | 0.08 | 0.08 | 86 | 1012.3 |
| 20260906020753 | 79 | 153 | 1.0 | 5.0 | 0.08 | 0.08 | 0.08 | 86 | 1012.3 |
| 20260906020235 | 79 | 153 | 2.0 | 5.0 | 0.08 | 0.08 | 0.08 | 85 | 1012.2 |
| 20260906015718 | 79 | 88 | 1.0 | 4.0 | 0.08 | 0.08 | 0.08 | 84 | 1012.2 |
| 20260906015243 | 80 | 21 | 0.0 | 2.0 | 0.08 | 0.08 | 0.08 | 83 | 1012.1 |
| 20260906014726 | 81 | 20 | 1.0 | 2.0 | 0.08 | 0.08 | 0.08 | 83 | 1012.0 |
| 20260906014231 | 81 | 20 | 1.0 | 2.0 | 0.08 | 0.08 | 0.08 | 82 | 1011.8 |
| 20260906013734 | 81 | 20 | 0.0 | 2.0 | 0.08 | 0.08 | 0.08 | 81 | 1011.8 |
| 20260906013218 | 82 | 20 | 0.0 | 4.0 | 0.08 | 0.08 | 0.08 | 81 | 1011.7 |
| 20260906012742 | 82 | 326 | 2.0 | 6.0 | 0.08 | 0.08 | 0.08 | 80 | 1011.7 |
| 20260906012226 | 83 | 54 | 1.0 | 7.0 | 0.08 | 0.08 | 0.08 | 80 | 1011.7 |
| 20260906011731 | 84 | 62 | 2.0 | 12.0 | 0.07 | 0.07 | 0.07 | 80 | 1011.6 |
| 20260906011214 | 85 | 214 | 6.0 | 12.0 | 0.03 | 0.03 | 0.03 | 81 | 1011.8 |
| 20260906010739 | 85 | 52 | 1.0 | 3.0 | 0.00 | 0.00 | 0.00 | 79 | 1011.7 |
| 20260906010243 | 86 | 51 | 0.0 | 0.0 | 0.00 | 0.00 | 0.00 | 79 | 1011.5 |
| 20260906005726 | 86 | 51 | 0.0 | 0.0 | 0.00 | 0.00 | 0.00 | 77 | 1011.6 |
| 20260906005230 | 87 | 51 | 0.0 | 0.0 | 0.00 | 0.00 | 0.00 | 77 | 1011.3 |
| 20260906004715 | 87 | 52 | 0.0 | 0.0 | 0.00 | 0.00 | 0.00 | 77 | 1011.4 |
| 20260906004238 | 88 | 52 | 0.0 | 0.0 | 0.00 | 0.00 | 0.00 | 77 | 1011.4 |
| 20260906003721 | 88 | 52 | 0.0 | 0.0 | 0.00 | 0.00 | 0.00 | 76 | 1011.4 |
| 20260906003225 | 88 | 52 | 0.0 | 0.0 | 0.00 | 0.00 | 0.00 | 75 | 1011.6 |
| 20260906002730 | 89 | 52 | 0.0 | 0.0 | 0.00 | 0.00 | 0.00 | 73 | 1011.6 |
| 20260906002233 | 90 | 52 | 0.0 | 0.0 | 0.00 | 0.00 | 0.00 | 72 | 1011.6 |
| 20260906001717 | 90 | 51 | 0.0 | 0.0 | 0.00 | 0.00 | 0.00 | 71 | 1011.5 |
| 20260906001241 | 90 | 52 | 0.0 | 0.0 | 0.00 | 0.00 | 0.00 | 70 | 1011.6 |
| 20260906000724 | 91 | 52 | 0.0 | 0.0 | 0.00 | 0.00 | 0.00 | 69 | 1011.6 |
| 20260906000244 | 91 | 52 | 0.0 | 0.0 | 0.00 | 0.00 | 0.00 | 69 | 1011.6 |
| 20260905235728 | 92 | 52 | 0.0 | 0.0 | 0.00 | 0.00 | 0.00 | 68 | 1011.7 |
| 20260905235213 | 92 | 52 | 0.0 | 2.0 | 0.00 | 0.00 | 0.00 | 67 | 1011.8 |
| 20260905234718 | 93 | 52 | 0.0 | 2.0 | 0.00 | 0.00 | 0.00 | 67 | 1011.7 |
| 20260905234221 | 93 | 52 | 1.0 | 2.0 | 0.00 | 0.00 | 0.00 | 66 | 1011.7 |
| 20260905233726 | 93 | 51 | 1.0 | 2.0 | 0.00 | 0.00 | 0.00 | 64 | 1011.7 |
| 20260905233230 | 94 | 51 | 1.0 | 4.0 | 0.00 | 0.00 | 0.00 | 64 | 1011.7 |
| 20260905232735 | 94 | 51 | 2.0 | 4.0 | 0.00 | 0.00 | 0.00 | 64 | 1011.6 |
| 20260905232253 | 94 | 51 | 1.0 | 5.0 | 0.00 | 0.00 | 0.00 | 62 | 1011.6 |
| 20260905231716 | 95 | 50 | 1.0 | 6.0 | 0.00 | 0.00 | 0.00 | 61 | 1011.5 |
| 20260905231220 | 95 | 36 | 3.0 | 6.0 | 0.00 | 0.00 | 0.00 | 61 | 1011.6 |
| 20260905230724 | 95 | 116 | 1.0 | 4.0 | 0.00 | 0.00 | 0.00 | 61 | 1011.4 |
| 20260905230213 | 96 | 116 | 1.0 | 4.0 | 0.00 | 0.00 | 0.00 | 60 | 1011.4 |
| 20260905225717 | 96 | 117 | 2.0 | 4.0 | 0.00 | 0.00 | 0.00 | 60 | 1011.3 |
| 20260905225220 | 96 | 59 | 2.0 | 6.0 | 0.00 | 0.00 | 0.00 | 59 | 1011.3 |
| 20260905224742 | 96 | 54 | 1.0 | 6.0 | 0.00 | 0.00 | 0.00 | 60 | 1011.3 |
| 20260905224246 | 96 | 105 | 2.0 | 5.0 | 0.00 | 0.00 | 0.00 | 60 | 1011.3 |
| 20260905223729 | 96 | 45 | 2.0 | 5.0 | 0.00 | 0.00 | 0.00 | 60 | 1011.1 |
| 20260905223234 | 96 | 98 | 1.0 | 6.0 | 0.00 | 0.00 | 0.00 | 60 | 1011.2 |
| 20260905222739 | 96 | 56 | 3.0 | 7.0 | 0.00 | 0.00 | 0.00 | 61 | 1011.2 |
| 20260905222245 | 96 | 78 | 2.0 | 6.0 | 0.00 | 0.00 | 0.00 | 59 | 1011.2 |
| 20260905221749 | 97 | 97 | 2.0 | 5.0 | 0.00 | 0.00 | 0.00 | 59 | 1011.1 |
| 20260905221235 | 96 | 127 | 2.0 | 11.0 | 0.00 | 0.00 | 0.00 | 59 | 1011.1 |
| 20260905220740 | 96 | 57 | 3.0 | 11.0 | 0.00 | 0.00 | 0.00 | 59 | 1010.9 |
| 20260905220226 | 96 | 92 | 2.0 | 11.0 | 0.00 | 0.00 | 0.00 | 60 | 1011.0 |
| 20260905215731 | 97 | 338 | 3.0 | 11.0 | 0.00 | 0.00 | 0.00 | 59 | 1011.0 |
| 20260905215237 | 97 | 87 | 3.0 | 7.0 | 0.00 | 0.00 | 0.00 | 58 | 1010.9 |
| 20260905214743 | 97 | 62 | 2.0 | 5.0 | 0.00 | 0.00 | 0.00 | 58 | 1010.9 |
| 20260905214248 | 97 | 148 | 2.0 | 6.0 | 0.00 | 0.00 | 0.00 | 58 | 1011.1 |
| 20260905213713 | 97 | 95 | 4.0 | 6.0 | 0.00 | 0.00 | 0.00 | 56 | 1011.2 |
| 20260905213218 | 98 | 68 | 3.0 | 9.0 | 0.00 | 0.00 | 0.00 | 56 | 1011.2 |
| 20260905212725 | 98 | 55 | 2.0 | 10.0 | 0.00 | 0.00 | 0.00 | 55 | 1011.2 |
| 20260905212231 | 98 | 34 | 4.0 | 11.0 | 0.00 | 0.00 | 0.00 | 54 | 1010.9 |
| 20260905211738 | 98 | 301 | 6.0 | 11.0 | 0.00 | 0.00 | 0.00 | 53 | 1010.9 |
| 20260905211242 | 98 | 316 | 6.0 | 9.0 | 0.00 | 0.00 | 0.00 | 53 | 1010.9 |
| 20260905210747 | 98 | 342 | 4.0 | 12.0 | 0.00 | 0.00 | 0.00 | 54 | 1011.1 |
| 20260905210253 | 98 | 355 | 7.0 | 12.0 | 0.00 | 0.00 | 0.00 | 52 | 1011.3 |
| 20260905205738 | 98 | 330 | 7.0 | 11.0 | 0.00 | 0.00 | 0.00 | 52 | 1011.3 |
| 20260905205244 | 98 | 342 | 3.0 | 10.0 | 0.00 | 0.00 | 0.00 | 53 | 1011.3 |
| 20260905204730 | 98 | 306 | 6.0 | 10.0 | 0.00 | 0.00 | 0.00 | 52 | 1011.3 |
| 20260905204216 | 98 | 24 | 6.0 | 10.0 | 0.00 | 0.00 | 0.00 | 52 | 1011.4 |
| 20260905203721 | 98 | 12 | 3.0 | 13.0 | 0.00 | 0.00 | 0.00 | 52 | 1011.4 |
| 20260905203227 | 98 | 327 | 5.0 | 14.0 | 0.00 | 0.00 | 0.00 | 53 | 1011.6 |
| 20260905202713 | 98 | 340 | 6.0 | 14.0 | 0.00 | 0.00 | 0.00 | 52 | 1011.5 |
| 20260905202240 | 98 | 360 | 4.0 | 11.0 | 0.00 | 0.00 | 0.00 | 54 | 1011.6 |
| 20260905201724 | 98 | 333 | 7.0 | 11.0 | 0.00 | 0.00 | 0.00 | 51 | 1011.7 |
| 20260905201230 | 99 | 332 | 6.0 | 10.0 | 0.00 | 0.00 | 0.00 | 52 | 1011.8 |
| 20260905200736 | 99 | 46 | 3.0 | 6.0 | 0.00 | 0.00 | 0.00 | 52 | 1011.8 |
| 20260905200222 | 99 | 32 | 4.0 | 6.0 | 0.00 | 0.00 | 0.00 | 53 | 1011.8 |
| 20260905195727 | 99 | 318 | 2.0 | 4.0 | 0.00 | 0.00 | 0.00 | 54 | 1011.8 |
| 20260905195234 | 98 | 220 | 2.0 | 7.0 | 0.00 | 0.00 | 0.00 | 54 | 1011.8 |
| 20260905194739 | 98 | 270 | 3.0 | 7.0 | 0.00 | 0.00 | 0.00 | 53 | 1011.8 |
| 20260905194222 | 98 | 231 | 3.0 | 5.0 | 0.00 | 0.00 | 0.00 | 54 | 1011.8 |
| 20260905193728 | 98 | 292 | 3.0 | 5.0 | 0.00 | 0.00 | 0.00 | 55 | 1012.1 |
| 20260905193214 | 98 | 299 | 2.0 | 4.0 | 0.00 | 0.00 | 0.00 | 55 | 1012.0 |
| 20260905192720 | 98 | 333 | 2.0 | 8.0 | 0.00 | 0.00 | 0.00 | 54 | 1012.1 |
| 20260905192226 | 97 | 316 | 3.0 | 9.0 | 0.00 | 0.00 | 0.00 | 55 | 1012.2 |
| 20260905191732 | 97 | 44 | 5.0 | 9.0 | 0.00 | 0.00 | 0.00 | 55 | 1012.3 |
| 20260905191238 | 97 | 334 | 3.0 | 5.0 | 0.00 | 0.00 | 0.00 | 56 | 1012.4 |
| 20260905190744 | 97 | 346 | 1.0 | 5.0 | 0.00 | 0.00 | 0.00 | 55 | 1012.4 |
| 20260905190250 | 97 | 346 | 2.0 | 10.0 | 0.00 | 0.00 | 0.00 | 57 | 1012.3 |
| 20260905185715 | 97 | 288 | 5.0 | 10.0 | 0.00 | 0.00 | 0.00 | 55 | 1012.5 |
| 20260905185219 | 97 | 338 | 3.0 | 8.0 | 0.00 | 0.00 | 0.00 | 55 | 1012.6 |
| 20260905184721 | 97 | 30 | 3.0 | 5.0 | 0.00 | 0.00 | 0.00 | 58 | 1012.6 |
| 20260905184243 | 96 | 59 | 2.0 | 5.0 | 0.00 | 0.00 | 0.00 | 59 | 1012.8 |
| 20260905183727 | 96 | 346 | 3.0 | 6.0 | 0.00 | 0.00 | 0.00 | 59 | 1012.9 |
| 20260905183249 | 96 | 329 | 4.0 | 6.0 | 0.00 | 0.00 | 0.00 | 57 | 1013.0 |
| 20260905182747 | 96 | 309 | 2.0 | 8.0 | 0.00 | 0.00 | 0.00 | 58 | 1013.0 |
| 20260905182215 | 95 | 263 | 2.0 | 4.0 | 0.00 | 0.00 | 0.00 | 60 | 1012.9 |
| 20260905181718 | 95 | 208 | 1.0 | 4.0 | 0.00 | 0.00 | 0.00 | 60 | 1013.0 |
| 20260905181222 | 94 | 45 | 2.0 | 4.0 | 0.00 | 0.00 | 0.00 | 60 | 1013.1 |
| 20260905180742 | 94 | 348 | 3.0 | 4.0 | 0.00 | 0.00 | 0.00 | 62 | 1013.1 |
| 20260905180225 | 94 | 15 | 3.0 | 6.0 | 0.00 | 0.00 | 0.00 | 60 | 1013.1 |
| 20260905175749 | 94 | 275 | 3.0 | 7.0 | 0.00 | 0.00 | 0.00 | 60 | 1013.1 |
| 20260905175232 | 93 | 223 | 2.0 | 7.0 | 0.00 | 0.00 | 0.00 | 60 | 1013.3 |
| 20260905174716 | 93 | 346 | 3.0 | 6.0 | 0.00 | 0.00 | 0.00 | 61 | 1013.3 |
| 20260905174220 | 93 | 132 | 3.0 | 6.0 | 0.00 | 0.00 | 0.00 | 61 | 1013.5 |
| 20260905173744 | 93 | 242 | 3.0 | 6.0 | 0.00 | 0.00 | 0.00 | 61 | 1013.5 |
| 20260905173228 | 93 | 200 | 3.0 | 7.0 | 0.00 | 0.00 | 0.00 | 61 | 1013.4 |
| 20260905172731 | 93 | 225 | 3.0 | 7.0 | 0.00 | 0.00 | 0.00 | 61 | 1013.5 |
| 20260905172235 | 93 | 266 | 3.0 | 9.0 | 0.00 | 0.00 | 0.00 | 60 | 1013.5 |
| 20260905171738 | 93 | 296 | 5.0 | 8.0 | 0.00 | 0.00 | 0.00 | 61 | 1013.6 |
| 20260905171221 | 92 | 267 | 4.0 | 6.0 | 0.00 | 0.00 | 0.00 | 61 | 1013.9 |
| 20260905170726 | 92 | 144 | 2.0 | 6.0 | 0.00 | 0.00 | 0.00 | 62 | 1014.0 |
| 20260905170230 | 92 | 183 | 4.0 | 6.0 | 0.00 | 0.00 | 0.00 | 61 | 1014.1 |
| 20260905165715 | 92 | 242 | 3.0 | 6.0 | 0.00 | 0.00 | 0.00 | 61 | 1014.3 |
| 20260905165220 | 92 | 190 | 3.0 | 7.0 | 0.00 | 0.00 | 0.00 | 62 | 1014.4 |
| 20260905164726 | 91 | 264 | 2.0 | 7.0 | 0.00 | 0.00 | 0.00 | 63 | 1014.4 |
| 20260905164232 | 91 | 229 | 2.0 | 7.0 | 0.00 | 0.00 | 0.00 | 64 | 1014.4 |
| 20260905163718 | 91 | 192 | 2.0 | 9.0 | 0.00 | 0.00 | 0.00 | 64 | 1014.4 |
| 20260905163224 | 91 | 173 | 2.0 | 9.0 | 0.00 | 0.00 | 0.00 | 65 | 1014.3 |
| 20260905162749 | 90 | 275 | 2.0 | 8.0 | 0.00 | 0.00 | 0.00 | 66 | 1014.2 |
| 20260905162214 | 90 | 144 | 1.0 | 9.0 | 0.00 | 0.00 | 0.00 | 66 | 1014.2 |
| 20260905161721 | 90 | 167 | 5.0 | 10.0 | 0.00 | 0.00 | 0.00 | 65 | 1014.2 |
| 20260905161226 | 89 | 166 | 5.0 | 10.0 | 0.00 | 0.00 | 0.00 | 66 | 1014.2 |
| 20260905160734 | 89 | 171 | 6.0 | 10.0 | 0.00 | 0.00 | 0.00 | 67 | 1014.1 |
| 20260905160218 | 89 | 160 | 2.0 | 8.0 | 0.00 | 0.00 | 0.00 | 67 | 1014.2 |
| 20260905155746 | 89 | 134 | 3.0 | 12.0 | 0.00 | 0.00 | 0.00 | 67 | 1014.2 |
| 20260905155231 | 88 | 215 | 4.0 | 12.0 | 0.00 | 0.00 | 0.00 | 67 | 1014.5 |
| 20260905154716 | 88 | 173 | 5.0 | 13.0 | 0.00 | 0.00 | 0.00 | 69 | 1014.6 |
| 20260905154222 | 88 | 144 | 6.0 | 13.0 | 0.00 | 0.00 | 0.00 | 68 | 1014.7 |
| 20260905153727 | 88 | 163 | 6.0 | 14.0 | 0.00 | 0.00 | 0.00 | 67 | 1014.5 |
| 20260905153235 | 87 | 167 | 6.0 | 16.0 | 0.00 | 0.00 | 0.00 | 69 | 1014.5 |
| 20260905152738 | 87 | 159 | 8.0 | 16.0 | 0.00 | 0.00 | 0.00 | 71 | 1014.4 |
| 20260905152219 | 86 | 127 | 7.0 | 12.0 | 0.00 | 0.00 | 0.00 | 71 | 1014.4 |
| 20260905151720 | 86 | 156 | 8.0 | 14.0 | 0.00 | 0.00 | 0.00 | 70 | 1014.3 |
| 20260905151222 | 86 | 162 | 7.0 | 14.0 | 0.00 | 0.00 | 0.00 | 71 | 1014.5 |
| 20260905150743 | 86 | 139 | 4.0 | 17.0 | 0.00 | 0.00 | 0.00 | 71 | 1014.4 |
| 20260905150224 | 86 | 164 | 8.0 | 17.0 | 0.00 | 0.00 | 0.00 | 71 | 1014.4 |
| 20260905145746 | 85 | 132 | 9.0 | 16.0 | 0.00 | 0.00 | 0.00 | 74 | 1014.5 |
| 20260905145227 | 85 | 115 | 6.0 | 12.0 | 0.00 | 0.00 | 0.00 | 75 | 1014.5 |
| 20260905144729 | 85 | 207 | 4.0 | 18.0 | 0.00 | 0.00 | 0.00 | 75 | 1014.5 |
| 20260905144253 | 85 | 78 | 11.0 | 18.0 | 0.00 | 0.00 | 0.00 | 76 | 1014.5 |
| 20260905143717 | 84 | 141 | 5.0 | 11.0 | 0.00 | 0.00 | 0.00 | 78 | 1014.5 |
| 20260905143241 | 84 | 220 | 5.0 | 11.0 | 0.00 | 0.00 | 0.00 | 79 | 1014.5 |
| 20260905142723 | 83 | 148 | 6.0 | 14.0 | 0.00 | 0.00 | 0.00 | 80 | 1014.5 |
| 20260905142228 | 83 | 171 | 8.0 | 14.0 | 0.00 | 0.00 | 0.00 | 80 | 1014.7 |
| 20260905141752 | 82 | 173 | 7.0 | 16.0 | 0.00 | 0.00 | 0.00 | 82 | 1014.7 |
| 20260905141214 | 82 | 188 | 9.0 | 16.0 | 0.00 | 0.00 | 0.00 | 84 | 1014.7 |
| 20260905140718 | 81 | 150 | 8.0 | 16.0 | 0.00 | 0.00 | 0.00 | 85 | 1014.7 |
| 20260905140223 | 80 | 148 | 9.0 | 18.0 | 0.00 | 0.00 | 0.00 | 87 | 1014.7 |
| 20260905135727 | 79 | 128 | 8.0 | 18.0 | 0.00 | 0.00 | 0.00 | 88 | 1014.7 |
| 20260905135232 | 79 | 148 | 9.0 | 15.0 | 0.00 | 0.00 | 0.00 | 90 | 1014.7 |
| 20260905134717 | 78 | 153 | 7.0 | 14.0 | 0.00 | 0.00 | 0.00 | 93 | 1014.6 |
| 20260905134222 | 77 | 156 | 6.0 | 12.0 | 0.00 | 0.00 | 0.00 | 94 | 1014.8 |
| 20260905133729 | 76 | 172 | 3.0 | 10.0 | 0.00 | 0.00 | 0.00 | 94 | 1014.7 |
| 20260905133234 | 76 | 155 | 5.0 | 10.0 | 0.00 | 0.00 | 0.00 | 94 | 1014.8 |
| 20260905132739 | 76 | 142 | 6.0 | 12.0 | 0.00 | 0.00 | 0.00 | 94 | 1014.8 |
| 20260905132224 | 76 | 161 | 4.0 | 17.0 | 0.00 | 0.00 | 0.00 | 94 | 1014.8 |
| 20260905131730 | 76 | 156 | 7.0 | 9.0 | 0.00 | 0.00 | 0.00 | 94 | 1014.9 |
| 20260905131216 | 76 | 171 | 0.0 | 4.0 | 0.00 | 0.00 | 0.00 | 95 | 1014.5 |
| 20260905130722 | 76 | 236 | 0.0 | 0.0 | 0.00 | 0.00 | 0.00 | 95 | 1014.4 |
| 20260905130250 | 75 | 236 | 0.0 | 0.0 | 0.00 | 0.00 | 0.00 | 94 | 1014.4 |
| 20260905125736 | 75 | 236 | 0.0 | 0.0 | 0.00 | 0.00 | 0.00 | 95 | 1014.2 |
| 20260905125222 | 75 | 236 | 0.0 | 0.0 | 0.00 | 0.00 | 0.00 | 94 | 1014.1 |
| 20260905124747 | 75 | 236 | 0.0 | 0.0 | 0.00 | 0.00 | 0.00 | 94 | 1014.1 |
| 20260905124213 | 75 | 236 | 0.0 | 0.0 | 0.00 | 0.00 | 0.00 | 94 | 1014.1 |
| 20260905123739 | 75 | 236 | 0.0 | 0.0 | 0.00 | 0.00 | 0.00 | 94 | 1014.1 |
| 20260905123245 | 75 | 236 | 0.0 | 0.0 | 0.00 | 0.00 | 0.00 | 94 | 1014.0 |
| 20260905122751 | 75 | 236 | 0.0 | 0.0 | 0.00 | 0.00 | 0.00 | 94 | 1014.0 |
| 20260905122217 | 75 | 236 | 0.0 | 0.0 | 0.00 | 0.00 | 0.00 | 94 | 1014.0 |
| 20260905121743 | 75 | 236 | 0.0 | 0.0 | 0.00 | 0.00 | 0.00 | 94 | 1014.0 |
| 20260905121250 | 74 | 236 | 0.0 | 0.0 | 0.00 | 0.00 | 0.00 | 94 | 1014.0 |
| 20260905120715 | 74 | 236 | 0.0 | 0.0 | 0.00 | 0.00 | 0.00 | 94 | 1014.0 |
| 20260905120221 | 74 | 236 | 0.0 | 0.0 | 0.00 | 0.00 | 0.00 | 94 | 1014.0 |
| 20260905115728 | 74 | 236 | 0.0 | 0.0 | 0.00 | 0.00 | 0.00 | 94 | 1013.8 |
| 20260905115235 | 74 | 236 | 0.0 | 0.0 | 0.00 | 0.00 | 0.00 | 93 | 1013.9 |
| 20260905114721 | 74 | 236 | 0.0 | 0.0 | 0.00 | 0.00 | 0.00 | 93 | 1013.8 |
| 20260905114246 | 74 | 236 | 0.0 | 0.0 | 0.00 | 0.00 | 0.00 | 93 | 1013.9 |
| 20260905113750 | 74 | 236 | 0.0 | 0.0 | 0.00 | 0.00 | 0.00 | 93 | 1013.9 |
| 20260905113231 | 74 | 236 | 0.0 | 0.0 | 0.00 | 0.00 | 0.00 | 93 | 1013.9 |
| 20260905112735 | 74 | 236 | 0.0 | 0.0 | 0.00 | 0.00 | 0.00 | 93 | 1013.7 |
| 20260905112218 | 74 | 236 | 0.0 | 0.0 | 0.00 | 0.00 | 0.00 | 93 | 1013.7 |
| 20260905111742 | 74 | 236 | 0.0 | 0.0 | 0.00 | 0.00 | 0.00 | 93 | 1013.6 |
| 20260905111225 | 74 | 236 | 0.0 | 0.0 | 0.00 | 0.00 | 0.00 | 93 | 1013.6 |
| 20260905110749 | 74 | 236 | 0.0 | 0.0 | 0.00 | 0.00 | 0.00 | 93 | 1013.5 |
| 20260905110232 | 74 | 236 | 0.0 | 0.0 | 0.00 | 0.00 | 0.00 | 93 | 1013.5 |
| 20260905105716 | 74 | 236 | 0.0 | 0.0 | 0.00 | 0.00 | 0.00 | 93 | 1013.5 |
| 20260905105220 | 75 | 236 | 0.0 | 0.0 | 0.00 | 0.00 | 0.00 | 93 | 1013.3 |
| 20260905104724 | 75 | 236 | 0.0 | 0.0 | 0.00 | 0.00 | 0.00 | 93 | 1013.3 |
| 20260905104228 | 75 | 236 | 0.0 | 0.0 | 0.00 | 0.00 | 0.00 | 93 | 1013.4 |
| 20260905103752 | 75 | 236 | 0.0 | 0.0 | 0.00 | 0.00 | 0.00 | 93 | 1013.4 |
| 20260905103215 | 75 | 236 | 0.0 | 0.0 | 0.00 | 0.00 | 0.00 | 93 | 1013.3 |
| 20260905102719 | 75 | 236 | 0.0 | 0.0 | 0.00 | 0.00 | 0.00 | 93 | 1013.4 |
| 20260905102243 | 75 | 236 | 0.0 | 0.0 | 0.00 | 0.00 | 0.00 | 93 | 1013.4 |
| 20260905101746 | 75 | 236 | 0.0 | 1.0 | 0.00 | 0.00 | 0.00 | 92 | 1013.5 |